CLUSTER II-FM7 (SAMBA)

Last updated on Thu Jul 03 2025 00:03:31 GMT+0000 (Coordinated Universal Time)

1 26410U 00041A 25184.93916758 .00002456 00000+0 00000+0 0 9991 2 26410 144.6944 12.7459 8415925 228.0701 359.4742 0.44797230 18750
UTC large
Height (km)
Speed (km/s)
/
Latitude / Longitude
Inclination (degrees)
Orbital Period (minutes)
Azimuth
Elevation
Range (km)
Doppler Factor

Next 0 passes for location: London (51.5072 / 0.1276)

Sorry there are no passes over London.